DW7516 Ajaltoun LB current weather conditions

sailwx.info

Wind from 093 at 6 knots gusting 7

Air temperature 20.0° C
Dewpoint -0.1° C

Last reported at 2019-Nov-12 05:46 UTC.
Time now 2019-Nov-12 06:20 UTC

Location: S 33°58' E 034°42'.
View on Google Maps.

See reports from other nearby stations

  
Tides and Currents Weather Stations Pressure Air Temp Water Temp Dewpoint Dewpoint Depression Visibility Wind Speed Wind Dir Waves Ship Positions
date/time (UTC)wind fromknots sea level pressurealtimeterstation pressurevisibilityair tempwater tempwave heightnotes
2019-Nov-12 05:46 093 6 gusting 7 20.0
2019-Nov-12 05:41 095 6 gusting 7 20.0
2019-Nov-12 05:36 095 4 gusting 6 19.4
2019-Nov-12 05:31 062 7 gusting 11 19.4
2019-Nov-12 05:16 086 1 gusting 6 18.9
2019-Nov-12 05:11 078 6 gusting 6 18.3
2019-Nov-12 05:06 068 6 gusting 6 18.3
2019-Nov-12 05:01 062 5 gusting 10 18.3
2019-Nov-12 04:46 076 2 gusting 6 17.8
2019-Nov-12 04:41 053 4 gusting 6 17.8
2019-Nov-12 04:36 073 4 gusting 5 17.2
2019-Nov-12 04:31 071 2 gusting 5 17.2
2019-Nov-12 04:16 025 3 gusting 5 17.2
2019-Nov-12 04:11 049 2 gusting 5 17.2
2019-Nov-12 04:06 051 2 gusting 4 17.2
2019-Nov-12 04:01 054 3 gusting 6 17.2
2019-Nov-12 03:46 019 2 gusting 4 17.2
2019-Nov-12 03:41 032 2 gusting 4 17.2
2019-Nov-12 03:36 050 1 gusting 4 17.2
2019-Nov-12 03:31 033 4 gusting 5 17.2
2019-Nov-12 03:16 028 2 gusting 6 17.2
2019-Nov-12 03:11 029 2 gusting 4 17.2
2019-Nov-12 03:06 022 2 gusting 4 17.2
2019-Nov-12 03:01 027 2 gusting 5 17.2
2019-Nov-12 02:46 025 2 gusting 5 17.2
2019-Nov-12 02:41 019 3 gusting 6 17.2
2019-Nov-12 02:36 017 2 gusting 5 17.2
2019-Nov-12 02:31 019 3 gusting 5 17.2
2019-Nov-12 02:16 043 2 gusting 5 17.2
2019-Nov-12 02:11 023 2 gusting 4 17.2
2019-Nov-12 02:06 058 2 gusting 4 17.2
2019-Nov-12 02:01 038 2 gusting 5 17.2
2019-Nov-12 01:46 046 2 gusting 4 17.2
2019-Nov-12 01:41 038 2 gusting 4 17.2
2019-Nov-12 01:36 009 2 gusting 4 17.2
2019-Nov-12 01:31 020 2 gusting 5 17.2
2019-Nov-12 01:16 034 3 gusting 5 17.2
2019-Nov-12 01:11 017 2 gusting 5 17.2
2019-Nov-12 01:06 004 4 gusting 5 17.2
2019-Nov-12 01:01 011 2 gusting 4 17.2
2019-Nov-12 00:46 010 2 gusting 4 17.2
2019-Nov-12 00:41 006 2 gusting 5 17.8
2019-Nov-12 00:36 030 2 gusting 5 17.2
2019-Nov-12 00:31 045 1 gusting 4 17.2
2019-Nov-12 00:16 046 2 gusting 4 17.2
2019-Nov-12 00:11 007 2 gusting 4 17.2
2019-Nov-12 00:06 005 2 gusting 4 17.2
2019-Nov-12 00:01 005 2 gusting 5 17.8
2019-Nov-11 23:46 015 2 gusting 4 17.8
2019-Nov-11 23:41 044 2 gusting 4 17.8
2019-Nov-11 23:36 023 2 gusting 4 17.8
2019-Nov-11 23:31 016 2 gusting 4 17.8
2019-Nov-11 23:16 051 2 gusting 6 17.8
2019-Nov-11 23:11 048 2 gusting 6 17.8
2019-Nov-11 23:06 043 3 gusting 5 17.8
2019-Nov-11 23:01 009 2 gusting 5 17.8
2019-Nov-11 22:46 027 2 gusting 5 17.8
2019-Nov-11 22:41 034 4 gusting 6 17.8
2019-Nov-11 22:36 009 4 gusting 6 17.8
2019-Nov-11 22:31 044 4 gusting 5 17.8
2019-Nov-11 22:16 022 2 gusting 4 17.8
2019-Nov-11 22:11 042 4 gusting 4 17.8
2019-Nov-11 22:06 033 2 gusting 5 17.8
2019-Nov-11 22:01 031 2 gusting 5 17.8
2019-Nov-11 21:46 019 3 gusting 5 17.8
2019-Nov-11 21:41 024 2 gusting 6 17.8
2019-Nov-11 21:36 015 2 gusting 4 17.8
2019-Nov-11 21:31 018 1 gusting 5 18.3
2019-Nov-11 21:16 027 2 gusting 4 18.3
2019-Nov-11 21:11 031 2 gusting 6 18.3
2019-Nov-11 21:06 042 1 gusting 4 18.3
2019-Nov-11 21:01 014 4 gusting 5 18.3
2019-Nov-11 20:46 034 3 gusting 6 18.3
2019-Nov-11 20:41 009 2 gusting 6 18.3
2019-Nov-11 20:36 012 4 gusting 4 18.9
2019-Nov-11 20:31 015 4 gusting 6 18.9
2019-Nov-11 20:16 054 1 gusting 2 18.9
2019-Nov-11 20:11 030 2 gusting 4 18.9
2019-Nov-11 20:06 033 1 gusting 5 18.9
2019-Nov-11 20:01 007 1 gusting 5 18.3
2019-Nov-11 19:46 004 1 gusting 2 18.9
2019-Nov-11 19:41 020 1 gusting 2 18.9
2019-Nov-11 19:36 356 1 gusting 2 18.9
2019-Nov-11 19:31 049 1 gusting 5 18.9
2019-Nov-11 19:16 076 1 gusting 2 19.4
2019-Nov-11 19:11 043 2 gusting 4 19.4
2019-Nov-11 19:06 009 1 gusting 6 19.4
2019-Nov-11 19:01 041 2 gusting 6 19.4
2019-Nov-11 18:46 023 2 gusting 4 19.4
2019-Nov-11 18:41 037 2 gusting 5 19.4
2019-Nov-11 18:36 034 2 gusting 6 19.4
2019-Nov-11 18:31 033 2 gusting 7 20.0
2019-Nov-11 18:16 043 4 gusting 5 20.0
2019-Nov-11 18:11 061 4 gusting 5 20.0
2019-Nov-11 18:06 028 2 gusting 6 20.0
2019-Nov-11 18:01 050 4 gusting 6 20.0
2019-Nov-11 17:46 030 4 gusting 5 20.0
2019-Nov-11 17:41 039 4 gusting 6 20.0
2019-Nov-11 17:36 034 4 gusting 6 20.0
2019-Nov-11 17:31 341 3 gusting 6 20.0
2019-Nov-11 17:16 005 4 gusting 6 20.6
2019-Nov-11 17:11 050 2 gusting 6 20.6
2019-Nov-11 17:06 045 4 gusting 6 20.6
2019-Nov-11 17:01 032 4 gusting 6 20.6
2019-Nov-11 16:46 058 4 gusting 6 20.6
2019-Nov-11 16:41 025 2 gusting 6 20.6
2019-Nov-11 16:36 032 4 gusting 6 20.6
2019-Nov-11 16:31 004 2 gusting 6 20.6
2019-Nov-11 16:16 023 2 gusting 5 20.6
2019-Nov-11 16:11 008 3 gusting 5 20.6
2019-Nov-11 16:06 022 2 gusting 4 20.6
2019-Nov-11 16:01 019 2 gusting 6 20.6
2019-Nov-11 15:46 037 4 gusting 6 20.6
2019-Nov-11 15:41 061 6 gusting 6 20.6
2019-Nov-11 15:36 025 2 gusting 6 20.6
2019-Nov-11 15:31 011 4 gusting 6 20.0
2019-Nov-11 15:16 352 0 gusting 1 20.0
2019-Nov-11 15:11 338 0 gusting 1 20.0
2019-Nov-11 15:06 356 0 gusting 1 20.0
2019-Nov-11 15:01 294 20.6
2019-Nov-11 14:46 090 20.6
2019-Nov-11 14:41 112 0 gusting 0 20.6
2019-Nov-11 14:36 090 21.1
2019-Nov-11 14:31 090 21.1
2019-Nov-11 14:16 158 1 gusting 1 21.7
2019-Nov-11 14:11 160 22.2
2019-Nov-11 14:06 148 0 gusting 1 22.2
2019-Nov-11 14:01 145 0 gusting 1 22.2
2019-Nov-11 13:46 186 0 gusting 1 22.2
2019-Nov-11 13:41 158 1 gusting 1 22.8
2019-Nov-11 13:36 127 1 gusting 2 22.8
2019-Nov-11 13:31 148 1 gusting 4 23.3
2019-Nov-11 13:16 161 1 gusting 1 23.9
2019-Nov-11 13:11 210 1 gusting 2 23.9
2019-Nov-11 13:06 225 2 gusting 4 23.9
2019-Nov-11 13:01 162 1 gusting 4 23.9
2019-Nov-11 11:46 238 4 gusting 6 24.4
2019-Nov-11 11:41 232 2 gusting 4 24.4
2019-Nov-11 11:36 231 2 gusting 4 24.4
2019-Nov-11 11:31 257 3 gusting 7 24.4
2019-Nov-11 11:16 281 5 gusting 10 25.6
2019-Nov-11 11:11 282 4 gusting 10 25.6
2019-Nov-11 11:06 281 5 gusting 7 25.0
2019-Nov-11 10:46 299 4 gusting 6 25.0
2019-Nov-11 10:41 306 6 gusting 6 25.0
2019-Nov-11 10:36 317 2 gusting 6 25.0
2019-Nov-11 10:31 273 1 gusting 11 25.6
2019-Nov-11 10:16 282 1 gusting 4 26.1
2019-Nov-11 10:11 270 2 gusting 6 26.1
2019-Nov-11 10:06 291 1 gusting 4 26.7
2019-Nov-11 10:01 255 2 gusting 6 26.7
2019-Nov-11 09:46 244 2 gusting 6 26.1
2019-Nov-11 09:41 281 5 gusting 6 26.1
2019-Nov-11 09:36 289 4 gusting 6 26.1
2019-Nov-11 09:31 287 3 gusting 6 25.6
2019-Nov-11 09:16 260 1 gusting 6 25.0
2019-Nov-11 09:11 275 4 gusting 7 25.6
2019-Nov-11 09:06 239 2 gusting 7 25.6
2019-Nov-11 09:01 250 5 gusting 7 25.6
2019-Nov-11 08:46 266 6 gusting 7 25.6
2019-Nov-11 08:41 256 7 gusting 10 25.6
2019-Nov-11 08:36 259 7 gusting 10 25.0
2019-Nov-11 08:31 257 6 gusting 7 25.6
2019-Nov-11 08:16 258 5 gusting 6 25.6
2019-Nov-11 08:11 265 6 gusting 6 25.6
2019-Nov-11 08:06 269 1 gusting 6 25.6
2019-Nov-11 08:01 259 4 gusting 6 25.6
2019-Nov-11 07:46 242 5 gusting 6 25.0
2019-Nov-11 07:41 245 6 gusting 6 25.0
2019-Nov-11 07:36 266 6 gusting 6 25.0
2019-Nov-11 07:31 260 5 gusting 7 25.0
2019-Nov-11 07:16 267 2 gusting 6 25.6
2019-Nov-11 07:11 286 0 gusting 4 25.0
2019-Nov-11 07:06 283 3 gusting 6 25.0
2019-Nov-11 07:01 270 1 gusting 6 25.0
2019-Nov-11 06:46 186 1 gusting 2 24.4
2019-Nov-11 06:41 185 1 gusting 1 25.0
2019-Nov-11 06:36 140 0 gusting 1 25.0
2019-Nov-11 06:31 138 1 gusting 2 24.4
2019-Nov-11 06:16 129 1 gusting 4 23.9
2019-Nov-11 06:11 066 1 gusting 4 23.9
2019-Nov-11 06:06 083 1 gusting 2 23.3
2019-Nov-11 06:01 082 0 gusting 4 23.3
2019-Nov-11 05:46 044 1 gusting 4 22.2
2019-Nov-11 05:41 042 1 gusting 4 22.2
2019-Nov-11 05:36 028 1 gusting 4 21.7
2019-Nov-11 05:31 036 3 gusting 6 21.7
2019-Nov-11 05:16 029 2 gusting 6 21.1
2019-Nov-11 05:11 038 4 gusting 6 20.6
2019-Nov-11 05:06 054 2 gusting 6 20.6
2019-Nov-11 05:01 029 5 gusting 6 20.6
2019-Nov-11 04:46 033 2 gusting 6 20.6
2019-Nov-11 04:41 032 4 gusting 6 20.6
2019-Nov-11 04:36 019 2 gusting 6 20.6
2019-Nov-11 04:31 016 2 gusting 6 20.0
2019-Nov-11 04:16 020 5 gusting 6 20.0
2019-Nov-11 04:11 008 6 gusting 6 20.0
2019-Nov-11 04:06 020 6 gusting 6 20.0
2019-Nov-11 04:01 026 4 gusting 6 20.0
2019-Nov-11 03:46 018 3 gusting 6 19.4
2019-Nov-11 03:41 016 2 gusting 6 19.4
2019-Nov-11 03:36 024 4 gusting 6 20.0
2019-Nov-11 03:31 020 5 gusting 6 20.0
2019-Nov-11 03:16 018 1 gusting 4 19.4
2019-Nov-11 03:11 070 2 gusting 6 20.0
2019-Nov-11 03:06 024 0 gusting 2 20.0
2019-Nov-11 03:01 027 2 gusting 6 20.0
2019-Nov-11 02:46 036 5 gusting 6 20.0
2019-Nov-11 02:41 025 5 gusting 6 20.0
2019-Nov-11 02:36 019 2 gusting 4 19.4
2019-Nov-11 02:31 016 4 gusting 7 19.4
2019-Nov-11 02:16 034 4 gusting 6 20.0
2019-Nov-11 02:11 034 4 gusting 6 20.0
2019-Nov-11 02:06 008 5 gusting 6 20.0
2019-Nov-11 02:01 009 6 gusting 6 20.0
2019-Nov-11 01:46 025 5 gusting 7 20.0
2019-Nov-11 01:41 014 2 gusting 4 20.0
2019-Nov-11 01:36 026 2 gusting 6 20.0
2019-Nov-11 01:31 017 2 gusting 6 20.0
2019-Nov-11 01:16 001 4 gusting 6 19.4
2019-Nov-11 01:11 005 5 gusting 6 19.4
2019-Nov-11 01:06 008 2 gusting 4 19.4
2019-Nov-11 01:01 002 2 gusting 6 20.0
2019-Nov-11 00:46 014 2 gusting 4 20.0
2019-Nov-11 00:41 005 1 gusting 4 20.6
2019-Nov-11 00:36 042 4 gusting 6 20.6
2019-Nov-11 00:31 059 5 gusting 13 20.6
2019-Nov-11 00:16 072 7 gusting 13 20.6
2019-Nov-11 00:11 060 10 gusting 13 20.6
2019-Nov-11 00:06 051 7 gusting 10 20.6
2019-Nov-11 00:01 058 7 gusting 10 20.6
2019-Nov-10 23:46 058 6 gusting 7 20.6
2019-Nov-10 23:41 109 5 gusting 7 20.6
2019-Nov-10 23:36 061 6 gusting 7 20.6
2019-Nov-10 23:31 042 5 gusting 6 20.6
2019-Nov-10 23:16 061 5 gusting 6 20.0
2019-Nov-10 23:11 056 6 gusting 7 20.0
2019-Nov-10 23:06 057 5 gusting 6 20.0
2019-Nov-10 23:01 081 6 gusting 10 20.0
2019-Nov-10 22:46 045 6 gusting 10 20.0
2019-Nov-10 22:41 046 5 gusting 7 20.0
2019-Nov-10 22:36 058 5 gusting 7 20.0
2019-Nov-10 22:31 061 4 gusting 6 20.0
2019-Nov-10 22:16 036 2 gusting 4 20.0
2019-Nov-10 22:11 026 4 gusting 7 20.0
2019-Nov-10 22:06 072 5 gusting 7 20.0
2019-Nov-10 22:01 062 4 gusting 6 20.0
2019-Nov-10 21:46 033 2 gusting 6 20.0
2019-Nov-10 21:41 080 6 gusting 6 20.0
2019-Nov-10 21:36 067 4 gusting 6 20.0
2019-Nov-10 21:31 036 6 gusting 7 20.0
2019-Nov-10 21:16 052 2 gusting 6 20.0
2019-Nov-10 21:11 064 4 gusting 6 20.6
2019-Nov-10 21:06 051 3 gusting 6 20.6
2019-Nov-10 21:01 062 4 gusting 7 20.6
2019-Nov-10 20:46 054 6 gusting 11 21.1
2019-Nov-10 20:41 070 4 gusting 10 21.1
2019-Nov-10 20:36 089 5 gusting 7 21.1
2019-Nov-10 20:31 077 4 gusting 7 21.1
2019-Nov-10 20:16 087 4 gusting 6 21.1
2019-Nov-10 20:11 047 2 gusting 6 21.1
2019-Nov-10 20:06 055 1 gusting 7 21.1
2019-Nov-10 20:01 079 7 gusting 10 21.1
2019-Nov-10 19:46 056 6 gusting 6 21.1
2019-Nov-10 19:41 055 6 gusting 7 21.1
2019-Nov-10 19:36 058 5 gusting 11 21.1
2019-Nov-10 19:31 070 6 gusting 11 21.1
2019-Nov-10 19:16 077 6 gusting 7 21.1
2019-Nov-10 19:11 059 7 gusting 7 21.1
2019-Nov-10 19:06 051 6 gusting 10 21.7
2019-Nov-10 19:01 067 6 gusting 12 21.7
2019-Nov-10 18:46 079 7 gusting 7 21.1
2019-Nov-10 18:41 055 6 gusting 7 21.1
2019-Nov-10 18:36 060 5 gusting 7 21.1
2019-Nov-10 18:31 034 2 gusting 6 21.1
2019-Nov-10 18:16 072 4 gusting 6 21.1
2019-Nov-10 18:11 054 4 gusting 6 21.7
2019-Nov-10 18:06 075 6 gusting 11 21.7
2019-Nov-10 18:01 072 4 gusting 7 21.7
2019-Nov-10 17:46 048 6 gusting 7 21.7
2019-Nov-10 17:41 067 4 gusting 6 21.7
2019-Nov-10 17:36 038 6 gusting 6 21.7
2019-Nov-10 17:31 057 4 gusting 11 21.7
2019-Nov-10 17:16 082 6 gusting 7 21.7
2019-Nov-10 17:11 053 2 gusting 6 21.7
2019-Nov-10 17:06 078 5 gusting 6 21.7
2019-Nov-10 16:46 053 4 gusting 6 21.1
2019-Nov-10 16:41 036 2 gusting 4 21.1
2019-Nov-10 16:36 054 2 gusting 4 21.7
2019-Nov-10 16:31 050 3 gusting 10 21.7
2019-Nov-10 16:16 039 5 gusting 6 21.7
2019-Nov-10 16:11 030 5 gusting 7 21.7
2019-Nov-10 16:06 059 7 gusting 12 21.7
2019-Nov-10 16:01 056 4 gusting 12 21.7
2019-Nov-10 15:46 072 6 gusting 7 21.7
2019-Nov-10 15:41 058 6 gusting 10 21.7
2019-Nov-10 15:36 070 4 gusting 10 21.7
2019-Nov-10 15:31 052 3 gusting 12 21.7
2019-Nov-10 15:16 039 5 gusting 7 21.7
2019-Nov-10 15:11 080 4 gusting 6 21.7
2019-Nov-10 15:06 060 3 gusting 6 21.7
2019-Nov-10 15:01 051 2 gusting 6 21.7
2019-Nov-10 14:46 050 2 gusting 6 22.2
2019-Nov-10 14:41 076 1 gusting 4 22.8
2019-Nov-10 14:36 067 5 gusting 12 22.8
2019-Nov-10 14:31 085 2 gusting 7 22.8
2019-Nov-10 14:16 072 1 gusting 2 22.8
2019-Nov-10 14:11 102 1 gusting 4 23.3
2019-Nov-10 14:06 074 0 gusting 1 23.3
2019-Nov-10 14:01 093 1 gusting 1 23.9
2019-Nov-10 13:46 100 23.9
2019-Nov-10 13:41 172 2 gusting 2 23.9
2019-Nov-10 13:36 148 2 gusting 2 24.4
2019-Nov-10 13:31 130 1 gusting 6 25.0
2019-Nov-10 13:16 214 6 gusting 10 26.1
2019-Nov-10 13:11 292 2 gusting 6 26.1
2019-Nov-10 13:06 285 1 gusting 6 26.1
2019-Nov-10 13:01 282 3 gusting 6 26.1
2019-Nov-10 12:46 264 2 gusting 4 26.1
2019-Nov-10 12:41 290 1 gusting 6 26.1
2019-Nov-10 12:36 327 3 gusting 6 26.1
2019-Nov-10 12:31 294 6 gusting 6 26.1
2019-Nov-10 12:16 314 4 gusting 6 26.7
2019-Nov-10 12:11 294 5 gusting 6 26.7
2019-Nov-10 12:06 302 4 gusting 6 26.7
2019-Nov-10 12:01 276 8 gusting 11 26.1
2019-Nov-10 11:46 282 1 gusting 4 26.7
2019-Nov-10 11:41 102 1 gusting 2 26.7
2019-Nov-10 11:36 195 1 gusting 4 27.2
2019-Nov-10 11:31 209 1 gusting 7 27.2
2019-Nov-10 11:16 228 2 gusting 6 27.2
2019-Nov-10 11:11 207 1 gusting 6 26.7
2019-Nov-10 11:06 195 4 gusting 10 26.7
2019-Nov-10 11:01 192 6 gusting 10 26.7
2019-Nov-10 10:46 191 7 gusting 10 26.7
2019-Nov-10 10:41 200 2 gusting 7 27.2
2019-Nov-10 10:36 190 0 gusting 2 27.2
2019-Nov-10 10:31 304 2 gusting 6 27.2
2019-Nov-10 10:16 273 4 gusting 6 26.7
2019-Nov-10 10:11 267 2 gusting 6 27.2
2019-Nov-10 10:06 266 1 gusting 4 26.7
2019-Nov-10 10:01 231 1 gusting 4 26.7
2019-Nov-10 09:46 248 1 gusting 4 27.2
2019-Nov-10 09:41 273 1 gusting 2 26.7
2019-Nov-10 09:36 236 4 gusting 6 26.1
2019-Nov-10 09:31 210 7 gusting 10 26.1
2019-Nov-10 09:16 232 2 gusting 7 26.1
2019-Nov-10 09:11 225 7 gusting 7 26.1
2019-Nov-10 09:06 135 7 gusting 7 26.1
2019-Nov-10 09:01 138 5 gusting 8 26.1
2019-Nov-10 08:46 150 7 gusting 10 26.1
2019-Nov-10 08:41 143 9 gusting 12 25.6
2019-Nov-10 08:36 151 7 gusting 10 25.6
2019-Nov-10 08:31 131 7 gusting 10 26.1
2019-Nov-10 08:16 126 6 gusting 11 25.6
2019-Nov-10 08:11 133 7 gusting 11 26.1
2019-Nov-10 08:06 140 6 gusting 6 26.1
2019-Nov-10 08:01 162 3 gusting 11 25.6
2019-Nov-10 07:46 124 5 gusting 10 25.0
2019-Nov-10 07:41 118 6 gusting 10 25.6
2019-Nov-10 07:36 161 6 gusting 12 25.6
2019-Nov-10 07:31 167 3 gusting 12 25.6
2019-Nov-10 07:16 114 5 gusting 7 25.0
2019-Nov-10 07:11 117 4 gusting 6 25.0
2019-Nov-10 07:06 128 6 gusting 6 25.0
2019-Nov-10 07:01 131 5 gusting 7 25.0
2019-Nov-10 06:46 122 7 gusting 7 25.0
2019-Nov-10 06:41 134 7 gusting 10 24.4
2019-Nov-10 06:36 116 6 gusting 8 25.0
2019-Nov-10 06:31 120 5 gusting 7 24.4
2019-Nov-10 06:16 065 4 gusting 6 23.9
2019-Nov-10 06:11 106 7 gusting 7 23.3
2019-Nov-10 06:06 072 4 gusting 7 23.3
2019-Nov-10 06:01 096 7 gusting 10 22.8